Weather History for KSRR - October, 2013

Change the Weather History Date:

Wednesday, October 16, 2013

  Actual Average Record
Temperature  
Mean Temperature 47 °F -  
Max Temperature 57 °F 64 °F 77 °F (2011)
Min Temperature 37 °F 42 °F 33 °F (2001)
Degree Days  
Heating Degree Days 18    
Moisture  
Dew Point 32 °F    
Average Humidity 69    
Maximum Humidity 93    
Minimum Humidity 29    
Precipitation  
Precipitation 0.00 in - - ()
Sea Level Pressure  
Sea Level Pressure 30.18 in    
Wind  
Wind Speed 8 mph (SE)    
Max Wind Speed 15 mph    
Max Gust Speed 24 mph    
Visibility 10 miles    
Events Rain    
Averages and records for this station are not official NWS values.
T = Trace of Precipitation, MM = Missing Value Source: NWS Daily Summary

Daily Weather History Graph

Daily Weather History Graph

Search for Another Location

Airport or City:

Trip Planner

Search our weather history database for the weather conditions in past years. The results will help you decide how hot, cold, wet, or windy it might be!

Date:

Astronomy

Oct. 16, 2013 Rise Set
Actual Time 7:07 AM MDT 6:26 PM MDT
Civil Twilight 6:42 AM MDT 6:51 PM MDT
Nautical Twilight 6:13 AM MDT 7:20 PM MDT
Astronomical Twilight 5:45 AM MDT 7:49 PM MDT
Moon 5:03 PM MDT (10/16) 4:44 AM MDT (10/16)
Length of Visible Light 12h 09m
Length of Day
11h 19m
Waxing Gibbous, 94% of the Moon is Illuminated
Oct 16
Waxing Gibbous
Oct 18
Full
Oct 26
Last Quarter
Nov 3
New
Nov 9
First Quarter

Hourly Weather History & Observations

Time (MDT) Temp. Windchill Dew Point Humidity Pressure Visibility Wind Dir Wind Speed Gust Speed Precip Events Conditions
12:15 AM 41.0 °F 36.4 °F 30.2 °F 65% 30.19 in 10.0 mi SE 6.9 mph - N/A   Mostly Cloudy
12:35 AM 41.0 °F 36.4 °F 30.2 °F 65% 30.19 in 10.0 mi SE 6.9 mph - N/A   Overcast
12:55 AM 41.0 °F 35.2 °F 32.0 °F 70% 30.18 in 10.0 mi SE 9.2 mph - N/A   Overcast
1:15 AM 41.0 °F 35.2 °F 32.0 °F 70% 30.19 in 9.0 mi SE 9.2 mph - N/A   Overcast
1:35 AM 39.2 °F 33.6 °F 33.8 °F 81% 30.19 in 10.0 mi SE 8.1 mph - N/A   Overcast
1:55 AM 39.2 °F 33.6 °F 33.8 °F 81% 30.19 in 10.0 mi ESE 8.1 mph - N/A   Overcast
2:15 AM 39.2 °F 34.2 °F 35.6 °F 87% 30.18 in 10.0 mi ESE 6.9 mph - N/A   Overcast
2:35 AM 39.2 °F 31.6 °F 35.6 °F 87% 30.17 in 10.0 mi ESE 12.7 mph - N/A   Overcast
2:55 AM 39.2 °F 32.5 °F 35.6 °F 87% 30.17 in 6.0 mi SE 10.4 mph - N/A Rain Light Rain
3:15 AM 37.4 °F 29.8 °F 35.6 °F 93% 30.17 in 10.0 mi SE 11.5 mph - N/A   Overcast
3:35 AM 37.4 °F 30.3 °F 35.6 °F 93% 30.16 in 10.0 mi ESE 10.4 mph - N/A   Overcast
3:55 AM 37.4 °F 30.8 °F 35.6 °F 93% 30.16 in 10.0 mi ESE 9.2 mph - N/A   Overcast
4:15 AM 37.4 °F 30.3 °F 35.6 °F 93% 30.15 in 10.0 mi ESE 10.4 mph - N/A   Overcast
4:35 AM 37.4 °F 28.9 °F 35.6 °F 93% 30.16 in 10.0 mi ESE 13.8 mph - N/A   Overcast
4:55 AM 37.4 °F 30.3 °F 35.6 °F 93% 30.16 in 10.0 mi ESE 10.4 mph - N/A   Overcast
5:15 AM 37.4 °F 30.8 °F 35.6 °F 93% 30.16 in 10.0 mi ESE 9.2 mph - N/A   Overcast
5:35 AM 37.4 °F 30.8 °F 35.6 °F 93% 30.16 in 10.0 mi ESE 9.2 mph - N/A   Overcast
5:55 AM 37.4 °F 30.3 °F 35.6 °F 93% 30.16 in 10.0 mi ESE 10.4 mph - N/A   Overcast
6:15 AM 37.4 °F 30.3 °F 35.6 °F 93% 30.16 in 10.0 mi ESE 10.4 mph 16.1 mph N/A   Overcast
6:35 AM 37.4 °F 30.8 °F 35.6 °F 93% 30.15 in 10.0 mi ESE 9.2 mph - N/A   Overcast
6:55 AM 37.4 °F 29.8 °F 33.8 °F 87% 30.16 in 10.0 mi ESE 11.5 mph - N/A   Overcast
7:15 AM 37.4 °F 31.4 °F 33.8 °F 87% 30.16 in 10.0 mi ESE 8.1 mph - N/A   Overcast
7:35 AM 37.4 °F 30.8 °F 32.0 °F 81% 30.17 in 10.0 mi ESE 9.2 mph - N/A   Overcast
7:55 AM 37.4 °F 32.1 °F 33.8 °F 87% 30.17 in 10.0 mi East 6.9 mph - N/A   Overcast
8:15 AM 37.4 °F 32.8 °F 33.8 °F 87% 30.19 in 10.0 mi East 5.8 mph - N/A   Overcast
8:35 AM 37.4 °F 32.8 °F 33.8 °F 87% 30.20 in 10.0 mi ESE 5.8 mph - N/A   Overcast
8:55 AM 37.4 °F 32.8 °F 35.6 °F 93% 30.20 in 10.0 mi East 5.8 mph - N/A   Overcast
9:15 AM 39.2 °F 33.6 °F 35.6 °F 87% 30.20 in 9.0 mi ESE 8.1 mph - N/A   Overcast
9:35 AM 39.2 °F 35.9 °F 35.6 °F 87% 30.21 in 9.0 mi East 4.6 mph - N/A   Overcast
9:55 AM 39.2 °F - 35.6 °F 87% 30.21 in 10.0 mi Calm Calm - N/A   Overcast
10:15 AM 39.2 °F 35.0 °F 35.6 °F 87% 30.22 in 10.0 mi SSE 5.8 mph - N/A   Overcast
10:35 AM 41.0 °F 39.0 °F 35.6 °F 81% 30.22 in 10.0 mi South 3.5 mph - N/A   Overcast
10:55 AM 41.0 °F - 35.6 °F 81% 30.22 in 10.0 mi Calm Calm - N/A   Overcast
11:15 AM 42.8 °F 40.1 °F 35.6 °F 76% 30.22 in 10.0 mi NE 4.6 mph - N/A   Overcast
11:35 AM 44.6 °F 41.4 °F 37.4 °F 76% 30.22 in 10.0 mi SSE 5.8 mph - N/A   Overcast
11:55 AM 46.4 °F 43.5 °F 37.4 °F 71% 30.21 in 10.0 mi West 5.8 mph - N/A   Mostly Cloudy
12:15 PM 46.4 °F 43.5 °F 37.4 °F 71% 30.20 in 10.0 mi NNE 5.8 mph - N/A   Mostly Cloudy
12:35 PM 48.2 °F - 35.6 °F 62% 30.19 in 10.0 mi NE 3.5 mph - N/A   Mostly Cloudy
12:55 PM 50.0 °F - 37.4 °F 62% 30.17 in 10.0 mi North 5.8 mph - N/A   Mostly Cloudy
1:15 PM 48.2 °F - 37.4 °F 66% 30.17 in 10.0 mi East 6.9 mph - N/A   Mostly Cloudy
1:35 PM 50.0 °F - 37.4 °F 62% 30.15 in 10.0 mi SE 9.2 mph 17.3 mph N/A   Scattered Clouds
1:55 PM 53.6 °F - 37.4 °F 54% 30.15 in 10.0 mi ESE 9.2 mph - N/A   Mostly Cloudy
2:15 PM 51.8 °F - 37.4 °F 58% 30.15 in 10.0 mi South 3.5 mph 16.1 mph N/A   Partly Cloudy
2:35 PM 53.6 °F - 37.4 °F 54% 30.15 in 10.0 mi ESE 10.4 mph - N/A   Scattered Clouds
2:55 PM 55.4 °F - 35.6 °F 47% 30.15 in 10.0 mi NE 3.5 mph - N/A   Mostly Cloudy
3:15 PM 55.4 °F - 24.8 °F 31% 30.14 in 10.0 mi NW 11.5 mph 19.6 mph N/A   Scattered Clouds
3:35 PM 57.2 °F - 24.8 °F 29% 30.14 in 10.0 mi NW 8.1 mph - N/A   Clear
3:55 PM 57.2 °F - 24.8 °F 29% 30.14 in 10.0 mi NW 9.2 mph 18.4 mph N/A   Clear
4:15 PM 57.2 °F - 24.8 °F 29% 30.14 in 10.0 mi NW 13.8 mph 17.3 mph N/A   Clear
4:35 PM 55.4 °F - 23.0 °F 29% 30.15 in 10.0 mi NW 15.0 mph 24.2 mph N/A   Clear
4:55 PM 55.4 °F - 23.0 °F 29% 30.15 in 10.0 mi NW 11.5 mph 19.6 mph N/A   Clear
5:15 PM 55.4 °F - 23.0 °F 29% 30.15 in 10.0 mi NW 11.5 mph 20.7 mph N/A   Clear
5:35 PM 55.4 °F - 23.0 °F 29% 30.16 in 10.0 mi WNW 12.7 mph - N/A   Clear
5:55 PM 53.6 °F - 23.0 °F 30% 30.16 in 10.0 mi NW 8.1 mph 16.1 mph N/A   Clear
6:15 PM 51.8 °F - 21.2 °F 30% 30.17 in 10.0 mi NW 10.4 mph - N/A   Clear
6:35 PM 50.0 °F - 21.2 °F 32% 30.17 in 10.0 mi WNW 6.9 mph - N/A   Clear
6:55 PM 48.2 °F - 21.2 °F 34% 30.17 in 10.0 mi West 5.8 mph - N/A   Clear
7:35 PM 42.8 °F 38.6 °F 32.0 °F 66% 30.18 in 10.0 mi South 6.9 mph - N/A   Clear
7:55 PM 42.8 °F 38.6 °F 37.4 °F 81% 30.18 in 10.0 mi SSE 6.9 mph - N/A   Clear
8:15 PM 41.0 °F 37.1 °F 35.6 °F 81% 30.19 in 10.0 mi South 5.8 mph - N/A   Clear
8:35 PM 41.0 °F 37.1 °F 35.6 °F 81% 30.19 in 10.0 mi South 5.8 mph - N/A   Clear
8:55 PM 41.0 °F 38.0 °F 35.6 °F 81% 30.20 in 10.0 mi South 4.6 mph - N/A   Clear
9:15 PM 41.0 °F 37.1 °F 30.2 °F 65% 30.21 in 10.0 mi South 5.8 mph - N/A   Clear
9:35 PM 39.2 °F 35.9 °F 30.2 °F 70% 30.21 in 10.0 mi South 4.6 mph - N/A   Clear
9:55 PM 41.0 °F 39.0 °F 32.0 °F 70% 30.21 in 10.0 mi SSW 3.5 mph - N/A   Clear
10:15 PM 41.0 °F 39.0 °F 32.0 °F 70% 30.21 in 10.0 mi SSW 3.5 mph - N/A   Clear
10:35 PM 39.2 °F 35.0 °F 32.0 °F 75% 30.20 in 10.0 mi SW 5.8 mph - N/A   Clear
10:55 PM 41.0 °F - 32.0 °F 70% 30.20 in 10.0 mi Calm Calm - N/A   Clear
11:15 PM 39.2 °F 35.9 °F 26.6 °F 61% 30.20 in 10.0 mi West 4.6 mph - N/A   Clear
11:35 PM 37.4 °F 32.8 °F 21.2 °F 52% 30.20 in 10.0 mi SW 5.8 mph - N/A   Clear
11:55 PM 41.0 °F 39.0 °F 21.2 °F 45% 30.20 in 10.0 mi North 3.5 mph - N/A   Clear